Regional Weather Roundup
Issued by NWS Albany, NY

Home | Current Version | Previous Version | Text Only | Print | Product List | Glossary On
Versions: 1 2 3 4 5 6 7 8 9 10 11 12 13 14 15 16 17 18 19 20 21 22 23 24 25 26 27 28 29 30 31 32 33 34 35 36 37 38 39 40 41 42 43 44 45 46 47 48 49 50
000
ASUS41 KALY 211510
RWRALY

NEW YORK STATE HOURLY WEATHER ROUNDUP
NATIONAL WEATHER SERVICE ALBANY NY
1100 AM EDT THU MAY 21 2015

NOTE: "FAIR" INDICATES FEW OR NO CLOUDS BELOW 12,000 FEET WITH NO
SIGNIFICANT WEATHER AND/OR NO OBSTRUCTIONS TO VISIBILITY.

NYZ032-033-038>043-046>054-057>066-NYZ062>081-211600-
EAST


CITY           SKY/WX    TMP DP  RH WIND       PRES   REMARKS
ALBANY         CLOUDY    56  35  45 SW5       29.97F
GLENS FALLS    CLOUDY    55  37  50 S9        29.94F
POUGHKEEPSIE   CLOUDY    56  36  47 CALM      29.99F
NEWBURGH       PTSUNNY   55  37  50 CALM      30.01S
MONTGOMERY     CLOUDY    56  38  50 SW6       29.99F
WHITE PLAINS   CLOUDY    57  37  47 CALM      29.99F
ISLIP          CLOUDY    59  32  36 CALM      29.99S
NEW YORK CITY  LGT RAIN  60  35  39 NE5       29.99S
CENTRAL PARK   CLOUDY    60  36  40 VRB3      30.02S
$$

NYZ005>009-017-018-044>046-055-056-211600-
CENTRAL


CITY           SKY/WX    TMP DP  RH WIND       PRES   REMARKS
FULTON         SUNNY     57  33  40 W5        29.96F
SYRACUSE       PTSUNNY   57  33  40 SW9       29.96F
ROME           CLOUDY    54  34  46 NW6       29.97F
ELMIRA         CLOUDY    53  41  63 S5        29.97F
BINGHAMTON     CLOUDY    49  38  65 VRB6      29.97F
MONTICELLO     CLOUDY    52  37  58 W7        30.00S
$$

NYZ026>034-041>043-211600-
NORTH


CITY           SKY/WX    TMP DP  RH WIND       PRES   REMARKS
WATERTOWN      PTSUNNY   56  35  45 SW16      29.95S
FORT DRUM      NOT AVBL
MASSENA        SUNNY     60  39  45 SW15      29.89F
SARANAC LAKE   CLOUDY    53  30  41 W6        29.87F
PLATTSBURGH    MOSUNNY   55  40  56 SE13      29.88F
$$

NYZ001>004-010>016-019>021-211600-
WEST


CITY           SKY/WX    TMP DP  RH WIND       PRES   REMARKS
NIAGARA FALLS  MOSUNNY   57  30  35 W7        29.96F
BUFFALO        MOSUNNY   57  29  34 SW10      29.97S
DUNKIRK        SUNNY     55  34  45 W8        29.99F
JAMESTOWN      MOSUNNY   52  34  50 S5        29.98F
WELLSVILLE     PTSUNNY   54  35  48 S8        29.97F
ROCHESTER      MOSUNNY   57  29  34 VRB5      29.97F
PENN YAN       MOSUNNY   58  37  45 SW7       29.96F
$$

             KEY
       WCI = WIND CHILL INDEX
       VSB = VISIBILITY
       HX  = HEAT INDEX
$$



USA.gov is the U.S. government's official web portal to all federal, state and local government web resources and services.